Time,TemperatureF,DewpointF,PressureIn,WindDirection,WindDirectionDegrees,WindSpeedMPH,WindSpeedGustMPH,Humidity,HourlyPrecipIn,Conditions,Clouds,dailyrainin,SoftwareType,DateUTC
2013-02-18 00:01:00,19.0,4.0,-100.00,SW,225,7.0,19.0,49,0.00,,,-99.99,,2013-02-18 07:01:00,
2013-02-18 00:11:00,19.0,4.0,-100.00,SW,220,4.0,14.0,49,0.00,,,-99.99,,2013-02-18 07:11:00,
2013-02-18 00:22:00,19.0,4.0,-100.00,SSW,205,9.0,16.0,50,0.00,,,-99.99,,2013-02-18 07:22:00,
2013-02-18 00:32:00,19.0,4.0,-100.00,SW,225,6.0,14.0,51,0.00,,,-99.99,,2013-02-18 07:32:00,
2013-02-18 00:42:00,19.0,4.0,-100.00,SW,220,5.0,12.0,52,0.00,,,-99.99,,2013-02-18 07:42:00,
2013-02-18 00:51:00,18.0,4.0,-100.00,WSW,240,4.0,7.0,53,0.00,,,-99.99,,2013-02-18 07:51:00,
2013-02-18 01:01:00,18.0,4.0,-100.00,SW,220,4.0,7.0,53,0.00,,,-99.99,,2013-02-18 08:01:00,
2013-02-18 01:11:00,17.0,4.0,-100.00,WSW,245,6.0,9.0,54,0.00,,,-99.99,,2013-02-18 08:11:00,
2013-02-18 01:21:00,17.0,4.0,-100.00,SW,220,7.0,9.0,55,0.00,,,-99.99,,2013-02-18 08:21:00,
2013-02-18 01:32:00,17.0,5.0,-100.00,SW,225,6.0,9.0,56,0.00,,,-99.99,,2013-02-18 08:32:00,
2013-02-18 01:42:00,18.0,6.0,-100.00,SSW,210,8.0,14.0,57,0.00,,,-99.99,,2013-02-18 08:42:00,
2013-02-18 01:52:00,18.0,6.0,-100.00,SW,220,6.0,12.0,59,0.00,,,-99.99,,2013-02-18 08:52:00,
2013-02-18 02:02:00,17.0,6.0,-100.00,SW,215,6.0,12.0,60,0.00,,,-99.99,,2013-02-18 09:02:00,
2013-02-18 02:11:00,17.0,6.0,-100.00,SW,225,6.0,15.0,62,0.00,,,-99.99,,2013-02-18 09:11:00,
2013-02-18 02:22:00,17.0,6.0,-100.00,SW,215,7.0,12.0,63,0.00,,,-99.99,,2013-02-18 09:22:00,
2013-02-18 02:32:00,17.0,7.0,-100.00,South,190,7.0,12.0,63,0.00,,,-99.99,,2013-02-18 09:32:00,
2013-02-18 02:42:00,17.0,7.0,-100.00,SSW,205,6.0,15.0,63,0.00,,,-99.99,,2013-02-18 09:42:00,
2013-02-18 02:51:00,17.0,7.0,-100.00,SW,225,7.0,11.0,64,0.00,,,-99.99,,2013-02-18 09:51:00,
2013-02-18 03:01:00,17.0,7.0,-100.00,SSW,210,7.0,13.0,64,0.00,,,-99.99,,2013-02-18 10:01:00,
2013-02-18 03:11:00,16.0,7.0,-100.00,SW,225,7.0,12.0,65,0.00,,,-99.99,,2013-02-18 10:11:00,
2013-02-18 03:21:00,15.0,7.0,-100.00,SW,220,8.0,12.0,67,0.00,,,-99.99,,2013-02-18 10:21:00,
2013-02-18 03:31:00,16.0,7.0,-100.00,SW,225,9.0,13.0,68,0.00,,,-99.99,,2013-02-18 10:31:00,
2013-02-18 03:42:00,16.0,8.0,-100.00,SW,220,10.0,16.0,69,0.00,,,-99.99,,2013-02-18 10:42:00,
2013-02-18 03:53:00,15.0,8.0,-100.00,SW,230,6.0,12.0,71,0.00,,,-99.99,,2013-02-18 10:53:00,
2013-02-18 04:01:00,15.0,7.0,-100.00,SW,235,9.0,14.0,71,0.00,,,-99.99,,2013-02-18 11:01:00,
2013-02-18 04:11:00,14.0,7.0,-100.00,SW,225,9.0,13.0,71,0.00,,,-99.99,,2013-02-18 11:11:00,
2013-02-18 04:22:00,13.0,6.0,-100.00,SW,225,9.0,13.0,71,0.00,,,-99.99,,2013-02-18 11:22:00,
2013-02-18 04:32:00,13.0,6.0,-100.00,SW,230,9.0,13.0,72,0.00,,,-99.99,,2013-02-18 11:32:00,
2013-02-18 04:42:00,13.0,6.0,-100.00,WSW,255,9.0,13.0,72,0.00,,,-99.99,,2013-02-18 11:42:00,
2013-02-18 04:52:00,12.0,5.0,-100.00,SW,235,4.0,11.0,73,0.00,,,-99.99,,2013-02-18 11:52:00,
2013-02-18 05:02:00,11.0,5.0,-100.00,SW,235,2.0,9.0,74,0.00,,,-99.99,,2013-02-18 12:02:00,
2013-02-18 05:11:00,10.0,4.0,-100.00,SW,225,6.0,7.0,75,0.00,,,-99.99,,2013-02-18 12:11:00,
2013-02-18 05:22:00,9.0,4.0,-100.00,SW,235,3.0,5.0,77,0.00,,,-99.99,,2013-02-18 12:22:00,
2013-02-18 05:32:00,9.0,4.0,-100.00,SW,225,4.0,7.0,78,0.00,,,-99.99,,2013-02-18 12:32:00,
2013-02-18 05:42:00,9.0,4.0,-100.00,WNW,290,2.0,7.0,79,0.00,,,-99.99,,2013-02-18 12:42:00,
2013-02-18 05:53:00,8.0,4.0,-100.00,NW,305,1.0,4.0,79,0.00,,,-99.99,,2013-02-18 12:53:00,
2013-02-18 06:02:00,8.0,3.0,-100.00,WNW,285,1.0,3.0,79,0.00,,,-99.99,,2013-02-18 13:02:00,
2013-02-18 06:12:00,7.0,2.0,-100.00,WSW,245,2.0,4.0,80,0.00,,,-99.99,,2013-02-18 13:12:00,
2013-02-18 06:22:00,6.0,1.0,-100.00,West,265,1.0,2.0,80,0.00,,,-99.99,,2013-02-18 13:22:00,
2013-02-18 06:32:00,6.0,1.0,-100.00,West,260,2.0,4.0,79,0.00,,,-99.99,,2013-02-18 13:32:00,
2013-02-18 06:42:00,4.0,-1.0,-100.00,SW,230,0.0,2.0,79,0.00,,,-99.99,,2013-02-18 13:42:00,
2013-02-18 06:53:00,4.0,-1.0,-100.00,WSW,250,0.0,1.0,80,0.00,,,-99.99,,2013-02-18 13:53:00,
2013-02-18 07:02:00,3.0,-1.0,-100.00,West,265,1.0,2.0,80,0.00,,,-99.99,,2013-02-18 14:02:00,
2013-02-18 07:11:00,2.0,-3.0,-100.00,NW,305,0.0,1.0,81,0.00,,,-99.99,,2013-02-18 14:11:00,
2013-02-18 07:22:00,2.0,-2.0,-100.00,SW,215,0.0,2.0,81,0.00,,,-99.99,,2013-02-18 14:22:00,
2013-02-18 07:33:00,1.0,-3.0,-100.00,NNE,20,1.0,5.0,81,0.00,,,-99.99,,2013-02-18 14:33:00,
2013-02-18 07:42:00,4.0,-1.0,-100.00,NE,45,4.0,9.0,78,0.00,,,-99.99,,2013-02-18 14:42:00,
2013-02-18 07:53:00,7.0,-1.0,-100.00,NE,50,4.0,8.0,71,0.00,,,-99.99,,2013-02-18 14:53:00,
2013-02-18 08:02:00,8.0,1.0,-100.00,East,90,1.0,7.0,70,0.00,,,-99.99,,2013-02-18 15:02:00,
2013-02-18 08:11:00,10.0,1.0,-100.00,ENE,75,5.0,11.0,65,0.00,,,-99.99,,2013-02-18 15:11:00,
2013-02-18 08:22:00,11.0,0.0,-100.00,NE,55,7.0,11.0,60,0.00,,,-99.99,,2013-02-18 15:22:00,
2013-02-18 08:32:00,11.0,0.0,-100.00,NE,50,6.0,11.0,59,0.00,,,-99.99,,2013-02-18 15:32:00,
2013-02-18 08:42:00,12.0,-1.0,-100.00,ESE,105,4.0,11.0,56,0.00,,,-99.99,,2013-02-18 15:42:00,
2013-02-18 08:52:00,13.0,0.0,-100.00,North,0,3.0,10.0,55,0.00,,,-99.99,,2013-02-18 15:52:00,
2013-02-18 09:03:00,15.0,1.0,-100.00,ENE,70,6.0,10.0,54,0.00,,,-99.99,,2013-02-18 16:03:00,
2013-02-18 09:12:00,16.0,2.0,-100.00,East,100,6.0,7.0,52,0.00,,,-99.99,,2013-02-18 16:12:00,
2013-02-18 09:22:00,18.0,2.0,-100.00,ENE,60,6.0,9.0,49,0.00,,,-99.99,,2013-02-18 16:22:00,
2013-02-18 09:32:00,18.0,2.0,-100.00,East,90,5.0,11.0,48,0.00,,,-99.99,,2013-02-18 16:32:00,
2013-02-18 09:42:00,19.0,3.0,-100.00,East,95,6.0,13.0,47,0.00,,,-99.99,,2013-02-18 16:42:00,
2013-02-18 09:52:00,20.0,3.0,-100.00,ENE,75,6.0,10.0,46,0.00,,,-99.99,,2013-02-18 16:52:00,
2013-02-18 10:03:00,22.0,4.0,-100.00,ESE,105,5.0,9.0,44,0.00,,,-99.99,,2013-02-18 17:03:00,
2013-02-18 10:12:00,21.0,2.0,-100.00,SW,235,3.0,9.0,42,0.00,,,-99.99,,2013-02-18 17:12:00,
2013-02-18 10:22:00,21.0,1.0,-100.00,SE,130,1.0,7.0,40,0.00,,,-99.99,,2013-02-18 17:22:00,
2013-02-18 10:32:00,23.0,2.0,-100.00,East,90,3.0,7.0,39,0.00,,,-99.99,,2013-02-18 17:32:00,
2013-02-18 10:42:00,22.0,0.0,-100.00,NE,55,2.0,7.0,37,0.00,,,-99.99,,2013-02-18 17:42:00,
2013-02-18 10:53:00,24.0,0.0,-100.00,SSW,205,5.0,9.0,34,0.00,,,-99.99,,2013-02-18 17:53:00,
2013-02-18 11:02:00,24.0,0.0,-100.00,South,180,4.0,9.0,34,0.00,,,-99.99,,2013-02-18 18:02:00,
2013-02-18 11:12:00,22.0,-3.0,-100.00,SSW,200,9.0,17.0,32,0.00,,,-99.99,,2013-02-18 18:12:00,
2013-02-18 11:22:00,22.0,-4.0,-100.00,SSW,200,4.0,17.0,30,0.00,,,-99.99,,2013-02-18 18:22:00,
2013-02-18 11:32:00,24.0,-3.0,-100.00,SW,225,6.0,12.0,30,0.00,,,-99.99,,2013-02-18 18:32:00,
2013-02-18 11:42:00,28.0,0.0,-100.00,South,185,4.0,8.0,29,0.00,,,-99.99,,2013-02-18 18:42:00,
2013-02-18 11:52:00,26.0,-2.0,-100.00,SSW,200,9.0,14.0,28,0.00,,,-99.99,,2013-02-18 18:52:00,
2013-02-18 12:03:00,31.0,2.0,-100.00,SSW,210,2.0,14.0,28,0.00,,,-99.99,,2013-02-18 19:03:00,
2013-02-18 12:12:00,30.0,1.0,-100.00,ESE,110,2.0,13.0,29,0.00,,,-99.99,,2013-02-18 19:12:00,
2013-02-18 12:22:00,32.0,3.0,-100.00,SSW,200,7.0,15.0,28,0.00,,,-99.99,,2013-02-18 19:22:00,
2013-02-18 12:33:00,28.0,0.0,-100.00,SSW,210,9.0,15.0,29,0.00,,,-99.99,,2013-02-18 19:33:00,
2013-02-18 12:42:00,28.0,0.0,-100.00,SW,235,8.0,12.0,29,0.00,,,-99.99,,2013-02-18 19:42:00,
2013-02-18 12:52:00,29.0,1.0,-100.00,SSE,150,6.0,12.0,30,0.00,,,-99.99,,2013-02-18 19:52:00,
2013-02-18 13:02:00,30.0,2.0,-100.00,SSW,200,6.0,12.0,30,0.00,,,-99.99,,2013-02-18 20:02:00,
2013-02-18 13:12:00,30.0,3.0,-100.00,SW,215,6.0,13.0,31,0.00,,,-99.99,,2013-02-18 20:12:00,
2013-02-18 13:23:00,26.0,1.0,-100.00,SW,225,9.0,14.0,33,0.00,,,-99.99,,2013-02-18 20:23:00,
2013-02-18 13:33:00,27.0,2.0,-100.00,SW,215,9.0,14.0,34,0.00,,,-99.99,,2013-02-18 20:33:00,
2013-02-18 13:42:00,27.0,3.0,-100.00,SSW,210,9.0,13.0,35,0.00,,,-99.99,,2013-02-18 20:42:00,
2013-02-18 13:52:00,25.0,2.0,-100.00,SW,215,11.0,19.0,35,0.00,,,-99.99,,2013-02-18 20:52:00,
2013-02-18 14:03:00,25.0,2.0,-100.00,SW,225,9.0,16.0,35,0.00,,,-99.99,,2013-02-18 21:03:00,
2013-02-18 14:12:00,25.0,2.0,-100.00,SW,220,9.0,17.0,36,0.00,,,-99.99,,2013-02-18 21:12:00,
2013-02-18 14:22:00,26.0,4.0,-100.00,SSW,210,6.0,15.0,37,0.00,,,-99.99,,2013-02-18 21:22:00,
2013-02-18 14:32:00,26.0,4.0,-100.00,SSW,210,11.0,14.0,38,0.00,,,-99.99,,2013-02-18 21:32:00,
2013-02-18 14:42:00,25.0,3.0,-100.00,SSW,210,7.0,16.0,38,0.00,,,-99.99,,2013-02-18 21:42:00,
2013-02-18 14:52:00,26.0,5.0,-100.00,South,170,6.0,13.0,39,0.00,,,-99.99,,2013-02-18 21:52:00,
2013-02-18 15:02:00,26.0,5.0,-100.00,SW,215,9.0,16.0,39,0.00,,,-99.99,,2013-02-18 22:02:00,
2013-02-18 15:12:00,25.0,5.0,-100.00,SW,225,8.0,17.0,40,0.00,,,-99.99,,2013-02-18 22:12:00,
2013-02-18 15:22:00,25.0,5.0,-100.00,SW,220,10.0,14.0,41,0.00,,,-99.99,,2013-02-18 22:22:00,
2013-02-18 15:33:00,25.0,5.0,-100.00,SW,215,9.0,15.0,42,0.00,,,-99.99,,2013-02-18 22:33:00,
2013-02-18 15:43:00,25.0,5.0,-100.00,SW,230,7.0,16.0,42,0.00,,,-99.99,,2013-02-18 22:43:00,
2013-02-18 15:52:00,25.0,6.0,-100.00,SW,215,9.0,14.0,43,0.00,,,-99.99,,2013-02-18 22:52:00,
2013-02-18 16:02:00,24.0,5.0,-100.00,SSW,210,8.0,13.0,43,0.00,,,-99.99,,2013-02-18 23:02:00,
2013-02-18 16:12:00,24.0,6.0,-100.00,SSW,205,7.0,14.0,44,0.00,,,-99.99,,2013-02-18 23:12:00,
2013-02-18 16:23:00,24.0,6.0,-100.00,SW,215,6.0,11.0,44,0.00,,,-99.99,,2013-02-18 23:23:00,
2013-02-18 16:33:00,24.0,6.0,-100.00,SSW,200,4.0,13.0,46,0.00,,,-99.99,,2013-02-18 23:33:00,
2013-02-18 16:42:00,24.0,6.0,-100.00,SSW,205,6.0,12.0,46,0.00,,,-99.99,,2013-02-18 23:42:00,
2013-02-18 16:52:00,22.0,5.0,-100.00,SW,215,9.0,18.0,48,0.00,,,-99.99,,2013-02-18 23:52:00,
2013-02-18 17:03:00,21.0,5.0,-100.00,SW,225,14.0,17.0,48,0.00,,,-99.99,,2013-02-19 00:03:00,
2013-02-18 17:12:00,21.0,5.0,-100.00,SW,225,15.0,18.0,49,0.00,,,-99.99,,2013-02-19 00:12:00,
2013-02-18 17:22:00,20.0,4.0,-100.00,SW,220,11.0,16.0,50,0.00,,,-99.99,,2013-02-19 00:22:00,
2013-02-18 17:34:00,19.0,4.0,-100.00,SW,215,7.0,13.0,50,0.00,,,-99.99,,2013-02-19 00:34:00,
2013-02-18 17:43:00,19.0,4.0,-100.00,SW,215,6.0,14.0,51,0.00,,,-99.99,,2013-02-19 00:43:00,
2013-02-18 17:53:00,18.0,3.0,-100.00,SSW,205,6.0,11.0,52,0.00,,,-99.99,,2013-02-19 00:53:00,
2013-02-18 18:03:00,18.0,3.0,-100.00,SSW,205,6.0,10.0,52,0.00,,,-99.99,,2013-02-19 01:03:00,
2013-02-18 18:24:00,17.0,3.0,-100.00,SW,230,4.0,9.0,53,0.00,,,-99.99,,2013-02-19 01:24:00,
2013-02-18 18:34:00,16.0,3.0,-100.00,SW,230,4.0,7.0,54,0.00,,,-99.99,,2013-02-19 01:34:00,
2013-02-18 18:43:00,15.0,2.0,-100.00,SW,220,3.0,6.0,55,0.00,,,-99.99,,2013-02-19 01:43:00,
2013-02-18 18:54:00,14.0,2.0,-100.00,WSW,245,4.0,7.0,57,0.00,,,-99.99,,2013-02-19 01:54:00,
2013-02-18 19:03:00,14.0,2.0,-100.00,WSW,240,3.0,6.0,58,0.00,,,-99.99,,2013-02-19 02:03:00,
2013-02-18 19:23:00,13.0,2.0,-100.00,West,265,5.0,7.0,60,0.00,,,-99.99,,2013-02-19 02:23:00,
2013-02-18 19:34:00,13.0,2.0,-100.00,WSW,250,4.0,8.0,60,0.00,,,-99.99,,2013-02-19 02:34:00,
2013-02-18 19:42:00,13.0,2.0,-100.00,WSW,240,4.0,7.0,61,0.00,,,-99.99,,2013-02-19 02:42:00,
2013-02-18 19:53:00,13.0,2.0,-100.00,WSW,245,3.0,7.0,61,0.00,,,-99.99,,2013-02-19 02:53:00,
2013-02-18 20:06:00,13.0,2.0,-100.00,SW,235,1.0,7.0,61,0.00,,,-99.99,,2013-02-19 03:06:00,
2013-02-18 20:14:00,13.0,2.0,-100.00,WSW,240,2.0,6.0,62,0.00,,,-99.99,,2013-02-19 03:14:00,
2013-02-18 20:24:00,14.0,3.0,-100.00,SSW,210,3.0,8.0,60,0.00,,,-99.99,,2013-02-19 03:24:00,
2013-02-18 20:34:00,14.0,3.0,-100.00,WSW,255,4.0,9.0,60,0.00,,,-99.99,,2013-02-19 03:34:00,
2013-02-18 20:44:00,14.0,3.0,-100.00,SW,235,5.0,9.0,60,0.00,,,-99.99,,2013-02-19 03:44:00,
2013-02-18 20:53:00,13.0,2.0,-100.00,SSW,200,4.0,9.0,60,0.00,,,-99.99,,2013-02-19 03:53:00,
2013-02-18 21:02:00,13.0,2.0,-100.00,WSW,245,4.0,8.0,61,0.00,,,-99.99,,2013-02-19 04:02:00,
2013-02-18 21:14:00,12.0,1.0,-100.00,SW,235,5.0,7.0,62,0.00,,,-99.99,,2013-02-19 04:14:00,
2013-02-18 21:23:00,10.0,1.0,-100.00,SW,235,4.0,6.0,63,0.00,,,-99.99,,2013-02-19 04:23:00,
2013-02-18 21:33:00,11.0,1.0,-100.00,WSW,245,6.0,9.0,63,0.00,,,-99.99,,2013-02-19 04:33:00,
2013-02-18 21:43:00,13.0,2.0,-100.00,WSW,245,4.0,9.0,62,0.00,,,-99.99,,2013-02-19 04:43:00,
2013-02-18 21:53:00,12.0,2.0,-100.00,SW,225,4.0,9.0,62,0.00,,,-99.99,,2013-02-19 04:53:00,
2013-02-18 22:02:00,12.0,2.0,-100.00,SW,230,4.0,9.0,62,0.00,,,-99.99,,2013-02-19 05:02:00,
2013-02-18 22:12:00,11.0,1.0,-100.00,West,270,6.0,9.0,63,0.00,,,-99.99,,2013-02-19 05:12:00,
2013-02-18 22:22:00,12.0,2.0,-100.00,SW,220,4.0,8.0,63,0.00,,,-99.99,,2013-02-19 05:22:00,
2013-02-18 22:32:00,12.0,2.0,-100.00,WSW,255,5.0,9.0,63,0.00,,,-99.99,,2013-02-19 05:32:00,
2013-02-18 22:43:00,12.0,2.0,-100.00,SW,220,4.0,8.0,62,0.00,,,-99.99,,2013-02-19 05:43:00,
2013-02-18 22:52:00,11.0,1.0,-100.00,SW,235,2.0,9.0,63,0.00,,,-99.99,,2013-02-19 05:52:00,
2013-02-18 23:02:00,11.0,1.0,-100.00,WSW,250,6.0,8.0,64,0.00,,,-99.99,,2013-02-19 06:02:00,
2013-02-18 23:11:00,11.0,1.0,-100.00,SW,225,5.0,7.0,64,0.00,,,-99.99,,2013-02-19 06:11:00,
2013-02-18 23:22:00,11.0,2.0,-100.00,SW,225,3.0,8.0,64,0.00,,,-99.99,,2013-02-19 06:22:00,
2013-02-18 23:32:00,10.0,1.0,-100.00,WSW,250,2.0,5.0,65,0.00,,,-99.99,,2013-02-19 06:32:00,
2013-02-18 23:42:00,10.0,1.0,-100.00,West,270,2.0,5.0,66,0.00,,,-99.99,,2013-02-19 06:42:00,
2013-02-18 23:52:00,9.0,0.0,-100.00,SW,220,1.0,5.0,66,0.00,,,-99.99,,2013-02-19 06:52:00,